KF6ILA Weather Reports


time (UTC)temp
F
wind
direction
speed
knots
gust
knots
rain 1hr
in
rain 24hr
in
rain mn
in
humidity
%
barometer
mb
20260906222253 71 66 0.9 4.3 0.00 0.02 0.00 84 1016.5
20260906220305 70 167 2.6 4.3 0.00 0.02 0.00 83 1016.6
20260906215808 70 110 3.5 6.1 0.00 0.02 0.00 83 1016.6
20260906214814 70 115 4.3 6.1 0.00 0.02 0.00 84 1016.8
20260906214317 70 114 1.7 4.3 0.00 0.02 0.00 84 1016.7
20260906213323 70 114 1.7 5.2 0.00 0.02 0.00 84 1016.8
20260906212329 70 97 3.5 5.2 0.00 0.02 0.00 86 1016.8
20260906211335 70 112 1.7 4.3 0.00 0.02 0.00 87 1017.0
20260906210341 70 106 3.5 5.2 0.00 0.02 0.00 88 1017.1
20260906205844 70 114 2.6 6.1 0.00 0.02 0.00 87 1017.1
20260906205347 70 116 3.5 6.1 0.00 0.02 0.00 88 1017.1
20260906204850 70 104 4.3 6.1 0.00 0.02 0.00 89 1017.1
20260906204353 70 124 3.5 5.2 0.00 0.02 0.00 89 1017.2
20260906203856 70 101 3.5 5.2 0.00 0.02 0.00 89 1017.1
20260906202902 70 109 3.5 6.1 0.00 0.02 0.00 88 1017.1
20260906202405 70 112 4.3 6.1 0.00 0.02 0.00 88 1017.1
20260906201908 70 109 4.3 5.2 0.00 0.02 0.00 88 1017.1
20260906201411 70 0 0.0 1.7 0.00 0.02 0.00 85 1017.0
20260906200914 70 0 0.0 2.6 0.00 0.02 0.00 86 1017.2
20260906200417 70 274 0.9 4.3 0.00 0.02 0.00 86 1017.2
20260906195920 70 274 1.7 5.2 0.00 0.02 0.00 84 1017.2
20260906194926 71 269 3.5 4.3 0.00 0.02 0.00 81 1017.3
20260906194429 71 263 1.7 4.3 0.00 0.02 0.00 81 1017.5
20260906193932 71 261 2.6 4.3 0.00 0.02 0.00 81 1017.5
20260906192938 71 286 2.6 5.2 0.00 0.02 0.00 81 1017.5
20260906191447 71 274 2.6 7.8 0.00 0.02 0.00 81 1017.7
20260906190950 71 269 3.5 7.8 0.00 0.02 0.00 81 1017.7
20260906190453 71 275 5.2 7.8 0.00 0.02 0.00 81 1017.7
20260906185459 71 278 6.1 10.4 0.00 0.02 0.00 79 1017.8
20260906185002 72 292 6.1 9.6 0.00 0.02 0.00 77 1017.9
20260906182517 72 286 6.1 11.3 0.00 0.02 0.00 75 1017.9
20260906182020 72 294 6.1 11.3 0.00 0.02 0.00 75 1017.8
20260906181523 72 269 5.2 8.7 0.00 0.02 0.00 76 1017.8
20260906181026 72 273 5.2 8.7 0.00 0.02 0.00 76 1017.8
20260906175536 72 280 3.5 6.1 0.00 0.02 0.00 78 1017.9
20260906174541 71 292 3.5 6.1 0.00 0.02 0.00 78 1017.7
20260906174044 71 304 2.6 5.2 0.00 0.02 0.00 78 1017.8
20260906173548 71 271 3.5 5.2 0.00 0.02 0.00 78 1017.7
20260906172626 71 281 2.6 5.2 0.00 0.02 0.00 78 1017.7
20260906172553 71 281 2.6 5.2 0.00 0.02 0.00 78 1017.7
20260906172056 71 286 2.6 5.2 0.00 0.02 0.00 79 1017.7
20260906171559 70 275 2.6 5.2 0.00 0.02 0.00 79 1017.7
20260906171102 70 271 3.5 7.0 0.00 0.02 0.00 79 1017.6
20260906170605 70 264 3.5 7.0 0.00 0.02 0.00 79 1017.6
20260906165611 70 266 2.6 7.0 0.00 0.02 0.00 80 1017.4
20260906165114 70 264 3.5 6.1 0.00 0.02 0.00 80 1017.2
20260906164617 69 275 2.6 7.8 0.00 0.02 0.00 82 1017.2
20260906164120 69 266 3.5 7.8 0.00 0.02 0.00 82 1017.1
20260906163623 69 269 4.3 10.4 0.00 0.02 0.00 82 1016.9
20260906162132 69 275 5.2 8.7 0.00 0.02 0.00 84 1016.9
20260906160641 68 270 4.3 7.8 0.00 0.02 0.00 84 1016.9
20260906160144 68 260 6.1 7.8 0.00 0.02 0.00 83 1016.9
20260906155647 68 254 5.2 7.8 0.00 0.02 0.00 83 1016.8
20260906155150 68 257 6.1 7.8 0.00 0.02 0.00 83 1016.8
20260906154156 68 261 4.3 7.8 0.00 0.02 0.00 84 1016.8
20260906153659 68 256 5.2 7.8 0.00 0.02 0.00 84 1016.7
20260906152208 68 265 5.2 8.7 0.00 0.02 0.00 84 1016.7
20260906150220 67 260 6.1 8.7 0.00 0.02 0.00 85 1016.7
20260906144232 67 249 4.3 8.7 0.00 0.02 0.00 84 1016.5
20260906143735 67 247 5.2 8.7 0.00 0.02 0.02 84 1016.6
20260906143309 67 239 6.1 8.7 0.00 0.02 0.02 84 1016.6
20260906143238 67 239 6.1 8.7 0.00 0.02 0.02 84 1016.6
20260906142741 66 247 5.2 8.7 0.00 0.02 0.02 85 1016.4
20260906142244 66 242 6.1 8.7 0.00 0.02 0.02 85 1016.3
20260906141747 66 241 6.1 7.8 0.00 0.02 0.02 85 1016.3
20260906141250 66 239 5.2 7.8 0.00 0.02 0.02 86 1016.2
20260906140753 66 241 4.3 7.8 0.00 0.02 0.02 86 1016.1
20260906140256 66 243 6.1 8.7 0.00 0.02 0.02 86 1016.1
20260906135759 66 242 6.1 8.7 0.00 0.02 0.02 87 1016.1
20260906135305 66 240 6.1 8.7 0.00 0.02 0.02 87 1016.0
20260906134805 66 243 5.2 8.7 0.00 0.02 0.02 87 1016.0
20260906134308 66 251 5.2 8.7 0.00 0.02 0.02 87 1015.9
20260906133811 66 250 6.1 10.4 0.00 0.02 0.02 88 1015.7
20260906133314 66 250 6.1 10.4 0.00 0.02 0.02 88 1015.7
20260906132903 65 247 7.8 10.4 0.00 0.02 0.02 88 1015.7
20260906132817 65 247 7.8 10.4 0.00 0.02 0.02 88 1015.7
20260906131823 65 255 6.1 9.6 0.00 0.02 0.02 89 1015.6
20260906130332 65 251 7.0 9.6 0.00 0.02 0.02 90 1015.6
20260906125835 65 247 5.2 9.6 0.00 0.02 0.02 90 1015.5
20260906125338 65 244 7.0 9.6 0.00 0.02 0.02 90 10.1
20260906124841 65 245 6.1 9.6 0.00 0.02 0.02 90 1015.4
20260906124344 65 248 6.1 9.6 0.00 0.02 0.02 90 1015.4
20260906123847 65 255 6.1 8.7 0.00 0.02 0.02 90 1015.6
20260906123350 65 260 5.2 9.6 0.00 0.02 0.02 90 1015.4
20260906122853 65 254 7.0 11.3 0.00 0.02 0.02 90 1015.4
20260906122356 65 259 7.8 11.3 0.00 0.02 0.02 90 1015.5
20260906121956 65 260 7.0 9.6 0.00 0.02 0.02 90 1015.4
20260906121859 65 260 7.0 9.6 0.00 0.02 0.02 90 1015.4
20260906121456 64 263 6.1 9.6 0.00 0.02 0.02 90 1015.5
20260906121402 64 263 6.1 9.6 0.00 0.02 0.02 90 1015.5
20260906120905 64 260 6.1 9.6 0.01 0.02 0.02 91 1015.5
20260906120408 64 257 7.0 9.6 0.01 0.02 0.02 91 1015.6
20260906115944 64 263 6.1 9.6 0.01 0.02 0.02 91 1015.6
20260906115911 64 263 6.1 9.6 0.01 0.02 0.02 91 1015.6
20260906115414 64 255 6.1 10.4 0.01 0.02 0.02 91 1015.7
20260906114954 64 263 7.0 10.4 0.02 0.02 0.02 91 1015.8
20260906114917 64 263 7.0 10.4 0.02 0.02 0.02 91 1015.8
20260906114420 63 269 5.2 9.6 0.02 0.02 0.02 91 1015.8
20260906113923 63 271 7.0 9.6 0.02 0.02 0.02 91 1015.9
20260906113426 63 268 6.1 11.3 0.02 0.02 0.02 91 1015.9
20260906112929 63 259 7.0 11.3 0.02 0.02 0.02 92 1016.0
20260906112432 62 260 7.8 11.3 0.02 0.02 0.02 91 1016.0
20260906111935 62 265 7.8 12.2 0.02 0.02 0.02 89 1015.9
20260906111438 62 276 7.8 13.0 0.02 0.02 0.02 87 1015.9
20260906110941 63 277 8.7 13.9 0.01 0.01 0.01 86 1015.8
20260906110444 63 272 8.7 13.9 0.01 0.01 0.01 85 1015.7
20260906105947 63 268 9.6 13.0 0.01 0.01 0.01 84 1015.8
20260906105450 63 267 8.7 13.0 0.01 0.01 0.01 84 1015.8
20260906104953 63 267 8.7 13.0 0.00 0.00 0.00 83 1015.8
20260906104456 63 263 8.7 10.4 0.00 0.00 0.00 83 1015.8
20260906103959 63 263 7.8 11.3 0.00 0.00 0.00 83 1015.8
20260906103502 63 260 7.0 11.3 0.00 0.00 0.00 82 1015.9
20260906102510 65 252 7.0 11.3 0.00 0.00 0.00
20260906102011 65 254 7.8 11.3 0.00 0.00 0.00 76 1015.9
20260906101515 65 267 7.0 11.3 0.00 0.00 0.00 75 1015.8
20260906101017 65 266 8.7 11.3 0.00 0.00 0.00 75 1015.8
20260906100520 65 260 7.8 11.3 0.00 0.00 0.00 76 1016.0
20260906100023 66 270 7.0 11.3 0.00 0.00 0.00 76 1015.9
20260906095526 66 267 5.2 11.3 0.00 0.00 0.00 74 1015.9
20260906094532 67 260 8.7 13.0 0.00 0.00 0.00 70 1015.9
20260906094035 67 258 6.1 12.2 0.00 0.00 0.00 69 1015.1
20260906093538 67 263 7.0 12.2 0.00 0.00 0.00 69 1015.1
20260906093041 68 259 7.8 12.2 0.00 0.00 0.00 69 1015.2
20260906092544 68 256 8.7 13.9 0.00 0.00 0.00 69 1015.1
20260906092047 68 258 8.7 13.9 0.00 0.00 0.00 69 1015.2
20260906091053 68 256 9.6 13.9 0.00 0.00 0.00 68 1015.3
20260906090556 68 258 7.8 13.0 0.00 0.00 0.00 68 1015.3
20260906090059 68 268 7.8 13.0 0.00 0.00 0.00 67 1015.4
20260906085637 68 271 6.1 12.2 0.00 0.00 0.00 66 1015.4
20260906085602 68 271 6.1 12.2 0.00 0.00 0.00 66 1015.4
20260906084608 68 257 7.8 13.9 0.00 0.00 0.00 65 1015.6
20260906083614 68 258 6.1 13.9 0.00 0.00 0.00 64 1015.6
20260906083117 68 256 9.6 13.9 0.00 0.00 0.00 64 1015.7
20260906082620 68 258 7.0 12.2 0.00 0.00 0.00 64 1015.7
20260906082123 68 270 7.0 12.2 0.00 0.00 0.00 65 1015.6
20260906081626 68 261 7.0 11.3 0.00 0.00 0.00 65 1015.6
20260906081129 68 265 7.0 12.2 0.00 0.00 0.00 65 1015.6
20260906080632 68 253 8.7 12.2 0.00 0.00 0.00 65 1015.9
20260906080135 68 261 7.8 11.3 0.00 0.00 0.00 65 1015.9
20260906075638 68 269 6.1 9.6 0.00 0.00 0.00 66 1016.0
20260906075141 68 260 7.0 9.6 0.00 0.00 0.00 66 1016.0
20260906073153 68 257 7.0 11.3 0.00 0.00 0.00 65 1016.2
20260906072159 68 245 7.8 10.4 0.00 0.00 0.00 65 1016.3
20260906071702 68 248 7.0 9.6 0.00 0.00 0.00 65 1016.4
20260906070708 68 253 7.0 9.6 0.00 0.00 0.00 66 1016.3
20260906070211 68 257 6.1 10.4 0.00 0.00 0.00 66 1016.4
20260906065714 68 246 6.1 10.4 0.00 0.00 0.00 66 1016.4
20260906065217 68 248 5.2 9.6 0.00 0.00 0.00 66 1016.3
20260906064720 68 246 6.1 9.6 0.00 0.00 0.00 66 1016.4
20260906064223 68 245 6.1 8.7 0.00 0.00 0.00 66 1016.4
20260906063726 68 249 6.1 8.7 0.00 0.00 0.00 66 1016.3
20260906063229 68 244 5.2 8.7 0.00 0.00 0.00 66 1016.3
20260906062732 68 251 6.1 9.6 0.00 0.00 0.00 66 1016.2
20260906062235 68 247 6.1 9.6 0.00 0.00 0.00 66 1016.1
20260906061241 68 241 6.1 9.6 0.00 0.00 0.00 65 1016.2
20260906060744 68 249 6.1 9.6 0.00 0.00 0.00 65 1016.2
20260906060321 68 243 7.0 9.6 0.00 0.00 0.00 65 1016.3
20260906060247 68 243 7.0 9.6 0.00 0.00 0.00 65 1016.3
20260906055750 68 247 7.0 9.6 0.00 0.00 0.00 65 1016.4
20260906055253 68 245 6.1 9.6 0.00 0.00 0.00 65 1016.5
20260906054756 68 249 5.2 9.6 0.00 0.00 0.00 64 1016.4
20260906054259 69 257 5.2 8.7 0.00 0.00 0.00 65 1016.6
20260906053802 68 263 4.3 8.7 0.00 0.00 0.00 64 1016.5
20260906053305 68 264 5.2 8.7 0.00 0.00 0.00 64 1016.5
20260906052808 68 250 6.1 8.7 0.00 0.00 0.00 65 1016.5
20260906052311 68 256 6.1 9.6 0.00 0.00 0.00 64 1016.5
20260906051317 68 261 7.0 10.4 0.00 0.00 0.00 64 1016.5
20260906050820 68 258 6.1 10.4 0.00 0.00 0.00 64 1016.6
20260906050323 68 260 7.0 10.4 0.00 0.00 0.00 64 1016.6
20260906045329 68 262 6.1 10.4 0.00 0.00 0.00 64 1016.5
20260906044832 68 260 7.0 10.4 0.00 0.00 0.00 64 1016.6
20260906043838 68 267 5.2 9.6 0.00 0.00 0.00 65 1016.6
20260906043341 68 260 6.1 9.6 0.00 0.00 0.00 65 1016.7
20260906042347 68 257 6.1 10.4 0.00 0.00 0.00 65 1016.7
20260906041850 68 258 5.2 9.6 0.00 0.00 0.00 63 1016.7
20260906041353 68 263 5.2 9.6 0.00 0.00 0.00 63 1016.6
20260906040856 68 265 7.0 11.3 0.00 0.00 0.00 63 1016.6
20260906040359 68 259 6.1 11.3 0.00 0.00 0.00 63 1016.6
20260906035902 68 257 7.0 10.4 0.00 0.00 0.00 62 1016.5
20260906035405 68 264 6.1 12.2 0.00 0.00 0.00 61 1016.4
20260906034908 69 284 7.0 12.2 0.00 0.00 0.00 60 1016.3
20260906034411 69 262 6.1 11.3 0.00 0.00 0.00 61 1016.4
20260906033914 69 262 6.1 12.2 0.00 0.00 0.00 60 1016.3
20260906033417 69 277 7.0 12.2 0.00 0.00 0.00 60 1016.1
20260906032920 69 268 6.1 10.4 0.00 0.00 0.00 59 1016.1
20260906032423 69 266 7.0 10.4 0.00 0.00 0.00 59 1016.1
20260906031926 69 278 5.2 10.4 0.00 0.00 0.00 59 1016.2
20260906031429 70 280 6.1 10.4 0.00 0.00 0.00 59 1016.0
20260906030932 70 273 7.0 10.4 0.00 0.00 0.00 59 1016.0
20260906030435 70 261 7.8 10.4 0.00 0.00 0.00 59 1016.0
20260906025442 70 269 7.8 13.9 0.00 0.00 0.00 58 1015.7
20260906024944 70 267 6.1 11.3 0.00 0.00 0.00 58 1015.8
20260906024447 71 266 7.8 12.2 0.00 0.00 0.00 57 1015.8
20260906023950 71 280 8.7 12.2 0.00 0.00 0.00 57 1015.8
20260906022956 71 274 6.1 12.2 0.00 0.00 0.00 56 1015.8
20260906022459 71 280 7.0 12.2 0.00 0.00 0.00 56 1015.8
20260906022002 72 285 7.8 12.2 0.00 0.00 0.00 55 1015.8
20260906015517 73 258 7.8 17.4 0.00 0.00 0.00 54 1015.9
20260906014026 75 277 7.8 14.8 0.00 0.00 0.00 51 1015.9
20260906013529 76 283 7.8 13.0 0.00 0.00 0.00 50 1016.0
20260906012535 76 259 6.1 12.2 0.00 0.00 0.00 50 1016.2
20260906012038 76 242 8.7 12.2 0.00 0.00 0.00 50 1016.3
20260906011044 77 269 5.2 16.5 0.00 0.00 0.00 49 1016.2
20260906005553 78 289 9.6 14.8 0.00 0.00 0.00 48 1016.1
20260906005130 69 276 7.8 13.9 0.00 0.00 0.00 47 1016.0
20260906005056 0 276 7.8 13.9 0.00 0.00 0.00 47 1016.0
20260906004559 79 261 6.1 13.9 0.00 0.00 0.00 47 1016.1
20260906004102 79 263 7.8 14.8 0.00 0.00 0.00 47 1016.1
20260906003605 79 267 9.6 14.8 0.00 0.00 0.00 48 1016.1
20260906003108 79 259 6.1 11.3 0.00 0.00 0.00 48 1016.2
20260906002114 78 264 7.8 14.8 0.00 0.00 0.00 48 1016.2
20260906001617 79 267 8.7 18.2 0.00 0.00 0.00 47 1016.1
20260906001120 79 267 11.3 18.2 0.00 0.00 0.00 46 1016.3
20260906000126 79 258 7.8 15.6 0.00 0.00 0.00 46 1016.2
20260905235629 79 259 6.1 14.8 0.00 0.00 0.00 46 1016.2
20260905235132 80 248 8.7 14.8 0.00 0.00 0.00 44 1016.2
20260905234712 80 277 7.8 15.6 0.00 0.00 0.00 43 1016.2
20260905234635 80 277 7.8 15.6 0.00 0.00 0.00 43 1016.2
20260905233641 81 255 8.7 17.4 0.00 0.00 0.00 42 1016.5
20260905233144 82 215 9.6 15.6 0.00 0.00 0.00 41 1016.4
20260905232647 82 277 7.8 16.5 0.00 0.00 0.00 40 1016.4
20260905231653 82 230 8.7 19.1 0.00 0.00 0.00 41 1016.3
20260905230659 81 247 6.1 17.4 0.00 0.00 0.00 42 1016.3
20260905230202 81 240 6.1 18.2 0.00 0.00 0.00 43 1016.3
20260905225208 81 241 7.0 19.1 0.00 0.00 0.00 43 1016.4
20260905224214 81 238 9.6 18.2 0.00 0.00 0.00 44 1016.4
20260905223717 79 245 7.8 18.2 0.00 0.00 0.00 46 1016.6
20260905223220 80 257 8.7 18.2 0.00 0.00 0.00 44 1016.5